W4TL Weather Reports


Display with metric or nautical units.
time (UTC)temp
F
wind
direction
speed
MPH
gust
MPH
rain 1hr
in
rain 24hr
in
rain mn
in
humidity
%
barometer
mb
20260505193050 82 148 1.0 8.0 0.00 0.00 0.00 39 1015.6
20260505191553 81 132 2.0 9.0 0.00 0.00 0.00 40 1015.7
20260505190111 82 110 3.0 8.0 0.00 0.00 0.00 39 1016.0
20260505184601 82 316 2.0 12.0 0.00 0.00 0.00 38 1016.0
20260505183054 81 117 2.0 8.0 0.00 0.00 0.00 40 1016.5
20260505181557 80 172 0.0 7.0 0.00 0.00 0.00 46 1016.4
20260505180052 80 292 2.0 9.0 0.00 0.00 0.00 43 1016.8
20260505174552 80 241 2.0 9.0 0.00 0.00 0.00 39 1016.9
20260505173053 79 224 2.0 8.0 0.00 0.00 0.00 41 1017.0
20260505171551 79 0 1.0 11.0 0.00 0.00 0.00 43 1016.9
20260505170059 78 237 2.0 11.0 0.00 0.00 0.00 41 1017.0
20260505164552 78 142 1.0 8.0 0.00 0.00 0.00 45 1017.1
20260505163058 77 182 2.0 7.0 0.00 0.00 0.00 47 1017.2
20260505161548 79 272 2.0 9.0 0.00 0.00 0.00 46 1017.2
20260505153102 76 142 1.0 7.0 0.00 0.00 0.00 53 1017.3
20260505151551 75 244 1.0 4.0 0.00 0.00 0.00 54 1017.6
20260505150108 73 115 0.0 2.0 0.00 0.00 0.00 60 1017.4
20260505140104 66 0 0.0 2.0 0.00 0.00 0.00 71 1017.5
20260505124611 52 0 0.0 3.0 0.00 0.00 0.00 100 1016.9
20260505123114 50 0 0.0 1.0 0.00 0.00 0.00 100 1017.0
20260505121552 47 0 0.0 1.0 0.00 0.00 0.00 99 1017.0
20260505120054 46 0 0.0 1.0 0.00 0.00 0.00 99 1016.9
20260505114602 45 0 0.0 0.0 0.00 0.00 0.00 99 1016.6
20260505113055 44 0 0.0 0.0 0.00 0.00 0.00 98 1016.5
20260505111600 44 0 0.0 0.0 0.00 0.00 0.00 97 1016.4
20260505101555 44 0 0.0 2.0 0.00 0.00 0.00 97 1016.4
20260505100103 45 0 0.0 1.0 0.00 0.00 0.00 97 1016.3
20260505094604 45 0 0.0 4.0 0.00 0.00 0.00 97 1016.3
20260505093058 45 0 0.0 5.0 0.00 0.00 0.00 97 1016.3
20260505091549 45 0 0.0 0.0 0.00 0.00 0.00 97 1016.2
20260505090058 45 207 0.0 0.0 0.00 0.00 0.00 96 1016.3
20260505084550 45 0 0.0 1.0 0.00 0.00 0.00 96 1016.2
20260505083106 46 0 0.0 0.0 0.00 0.00 0.00 96 1016.4
20260505081552 46 0 0.0 0.0 0.00 0.00 0.00 96 1016.3
20260505080056 46 0 0.0 0.0 0.00 0.00 0.00 96 1016.4
20260505074549 46 0 0.0 1.0 0.00 0.00 0.00 96 1016.2
20260505073057 47 0 0.0 1.0 0.00 0.00 0.00 95 1016.3
20260505071548 47 0 0.0 1.0 0.00 0.00 0.00 95 1016.2
20260505070057 47 0 0.0 1.0 0.00 0.00 0.00 95 1016.3
20260505064551 47 0 0.0 0.0 0.00 0.00 0.00 94 1016.3
20260505063051 48 0 0.0 0.0 0.00 0.00 0.00 94 1016.4
20260505061602 48 0 0.0 0.0 0.00 0.00 0.00 94 1016.5
20260505060051 48 0 0.0 0.0 0.00 0.00 0.00 93 1016.5
20260505054557 49 0 0.0 0.0 0.00 0.00 0.00 93 1016.4
20260505053053 49 0 0.0 0.0 0.00 0.00 0.00 91 1016.6
20260505051550 50 0 0.0 0.0 0.00 0.00 0.00 91 1016.6
20260505050125 50 0 0.0 0.0 0.00 0.00 0.00 91 1016.4
20260505041604 52 0 0.0 0.0 0.00 0.00 0.00 88 1016.5
20260505040059 52 0 0.0 0.0 0.00 0.00 0.00 87 1016.6
20260505034554 53 0 0.0 0.0 0.00 0.00 0.00 86 1016.5
20260505033050 54 0 0.0 0.0 0.00 0.00 0.00 84 1016.6
20260505031550 54 0 0.0 0.0 0.00 0.00 0.00 82 1016.6
20260505030052 55 0 0.0 0.0 0.00 0.00 0.00 81 1016.6
20260505024550 56 0 0.0 0.0 0.00 0.00 0.00 78 1016.4
20260505023054 57 0 0.0 0.0 0.00 0.00 0.00 77 1016.4
20260505021550 58 0 0.0 0.0 0.00 0.00 0.00 74 1016.3
20260505020050 60 0 0.0 0.0 0.00 0.00 0.00 71 1016.3
20260505014604 61 0 0.0 0.0 0.00 0.00 0.00 67 1016.2
20260505013054 63 0 0.0 0.0 0.00 0.00 0.00 63 1015.9
20260505011558 65 0 0.0 1.0 0.00 0.00 0.00 60 1015.9
20260505010055 67 0 0.0 0.0 0.00 0.00 0.00 56 1015.7
20260505004553 69 0 0.0 0.0 0.00 0.00 0.00 52 1015.6
20260505003054 71 0 0.0 2.0 0.00 0.00 0.00 48 1015.4
20260505001609 73 146 0.0 2.0 0.00 0.00 0.00 45 1015.3
20260505000131 73 0 0.0 5.0 0.00 0.00 0.00 44 1015.2
20260504234605 75 168 2.0 9.0 0.00 0.00 0.00 41 1015.3
20260504233102 76 148 1.0 5.0 0.00 0.00 0.00 40 1015.0
20260504231555 77 153 1.0 6.0 0.00 0.00 0.00 39 1015.2
20260504230053 78 263 1.0 6.0 0.00 0.00 0.00 39 1015.0
20260504224606 80 153 1.0 7.0 0.00 0.00 0.00 37 1015.0
20260504223047 80 207 1.0 5.0 0.00 0.00 0.00 36 1014.9
20260504221549 80 174 0.0 5.0 0.00 0.00 0.00 36 1015.0
20260504220058 80 0 0.0 5.0 0.00 0.00 0.00 37 1014.9
20260504214548 80 136 2.0 6.0 0.00 0.00 0.00 35 1015.0
20260504213109 80 189 0.0 4.0 0.00 0.00 0.00 37 1015.1
20260504211555 80 141 1.0 3.0 0.00 0.00 0.00 36 1015.0
20260504210049 80 0 1.0 4.0 0.00 0.00 0.00 41 1015.1
20260504204554 83 98 2.0 6.0 0.00 0.00 0.00 33 1015.3
20260504203117 82 188 0.0 7.0 0.00 0.00 0.00 35 1015.4
20260504201556 80 211 1.0 5.0 0.00 0.00 0.00 37 1015.5
20260504200053 79 0 0.0 6.0 0.00 0.00 0.00 37 1015.7
20260504194602 81 138 1.0 4.0 0.00 0.00 0.00 32 1015.8